DW9142 Weather Reports


time (UTC)temp
F
wind
direction
speed
knots
gust
knots
rain 1hr
in
rain 24hr
in
rain mn
in
humidity
%
barometer
mb
20260510201549 75 0.0 0.0 0.00 0.17 0.00 55 1012.1
20260510200020 76 0.0 0.0 0.00 0.17 0.00 56 1012.2
20260510194525 77 0.0 0.0 0.00 0.17 0.00 50 1012.4
20260510193111 79 0.0 0.0 0.00 0.17 0.00 48 1012.3
20260510191554 79 0.0 0.0 0.00 0.17 0.00 50 1012.3
20260510190059 78 0.0 0.0 0.00 0.17 0.00 51 1012.6
20260510184525 77 0.0 0.0 0.00 0.17 0.00 49 1012.7
20260510183020 80 0.0 0.0 0.00 0.17 0.00 45 1012.7
20260510181558 79 0.0 0.0 0.00 0.17 0.17 53 1012.7
20260510180105 78 0.0 0.0 0.00 0.17 0.17 52 1012.7
20260510174533 76 0.0 0.0 0.00 0.17 0.17 50 1012.8
20260510173029 77 0.0 0.0 0.00 0.17 0.17 51 1012.7
20260510171510 76 0.0 0.0 0.00 0.17 0.17 57 1012.7
20260510170002 75 0.0 0.0 0.00 0.17 0.17 59 1012.7
20260510164553 73 0.0 0.0 0.00 0.17 0.17 67 1012.9
20260510163055 71 0.0 0.0 0.00 0.17 0.17 67 1013.0
20260510161515 69 0.0 0.0 0.00 0.17 0.17 73 1012.9
20260510160011 68 0.0 0.0 0.00 0.17 0.17 73 1013.1
20260510154552 66 0.0 0.0 0.00 0.17 0.17 76 1013.4
20260510153058 63 0.0 0.0 0.00 0.17 0.17 81 1013.5
20260510151525 62 0.0 0.0 0.00 0.17 0.17 85 1013.6
20260510150025 59 0.0 0.0 0.00 0.17 0.17 90 1013.7
20260510144617 58 0.0 0.0 0.00 0.17 0.17 93 1013.7
20260510143106 57 0.0 0.0 0.00 0.17 0.17 95 1013.7
20260510141532 56 0.0 0.0 0.00 0.17 0.17 95 1013.6
20260510140032 55 0.0 0.0 0.00 0.17 0.17 95 1013.6
20260510134507 55 0.0 0.0 0.00 0.17 0.17 95 1013.5
20260510133002 54 0.0 0.0 0.00 0.17 0.17 95 1013.5
20260510131541 54 0.0 0.0 0.00 0.17 0.17 95 1013.6
20260510130036 53 0.0 0.0 0.00 0.17 0.17 95 1013.5
20260510124521 53 0.0 0.0 0.00 0.17 0.17 95 1013.2
20260510123011 53 0.0 0.0 0.00 0.17 0.17 95 1013.1
20260510121550 53 0.0 0.0 0.00 0.17 0.17 95 1013.1
20260510120045 52 0.0 0.0 0.00 0.17 0.17 95 1012.9
20260510114524 52 0.0 0.0 0.00 0.17 0.17 94 1012.7
20260510113019 52 0.0 0.0 0.00 0.17 0.17 95 1012.6
20260510111505 51 0.0 0.0 0.00 0.17 0.17 95 1012.6
20260510110100 51 0.0 0.0 0.00 0.17 0.17 95 1012.5
20260510104556 51 0.0 0.0 0.00 0.17 0.17 94 1012.2
20260510103051 50 0.0 0.0 0.00 0.17 0.17 95 1012.2
20260510101647 50 0.0 0.0 0.00 0.17 0.17 95 1012.0
20260510094551 49 0.0 0.0 0.00 0.17 0.17 94 1012.0
20260510093037 49 0.0 0.0 0.00 0.17 0.17 94 1012.0
20260510091520 48 0.0 0.0 0.00 0.17 0.17 94 1012.1
20260510090014 48 0.0 0.0 0.00 0.17 0.17 94 1011.7
20260510084510 47 0.0 0.0 0.00 0.17 0.17 94 1011.4
20260510083017 47 0.0 0.0 0.00 0.17 0.17 94 1011.2
20260510081503 48 0.0 0.0 0.00 0.17 0.17 94 1011.2
20260510080059 48 0.0 0.0 0.00 0.17 0.17 94 1011.2
20260510074553 48 0.0 0.0 0.00 0.17 0.17 94 1011.2
20260510073057 48 0.0 0.0 0.00 0.17 0.17 94 1011.1
20260510071531 48 0.0 0.0 0.00 0.17 0.17 94 1011.0
20260510070030 49 0.0 0.0 0.00 0.17 0.17 94 1010.9
20260510064506 49 0.0 0.0 0.00 0.17 0.17 94 1010.5
20260510063057 49 0.0 0.0 0.00 0.17 0.17 94 1010.5
20260510061536 49 0.0 0.0 0.00 0.17 0.17 94 1010.7
20260510060031 49 0.0 0.0 0.00 0.17 0.17 94 1010.8
20260510054510 49 0.0 0.0 0.00 0.17 0.17 94 1010.9
20260510053007 49 0.0 0.0 0.00 0.17 0.17 94 1011.0
20260510051547 49 0.0 0.0 0.00 0.17 0.17 94 1011.0
20260510050041 49 0.0 0.0 0.00 0.17 0.17 94 1011.1
20260510044528 49 0.0 0.0 0.00 0.17 0.17 93 1011.2
20260510043014 49 0.0 0.0 0.00 0.17 0.17 93 1011.3
20260510041553 49 0.0 0.0 0.00 0.17 0.17 93 1011.3
20260510040057 49 0.0 0.0 0.00 0.17 0.17 93 1011.3
20260510034529 49 0.0 0.0 0.00 0.17 0.17 93 1011.1
20260510033022 49 0.0 0.0 0.00 0.17 0.17 93 1011.0
20260510031501 50 0.0 0.0 0.00 0.17 0.17 93 1010.9
20260510024538 50 0.0 0.0 0.00 0.17 0.17 93 1010.9
20260510023033 51 0.0 0.0 0.00 0.17 0.17 93 1010.8
20260510021518 51 0.0 0.0 0.00 0.17 0.17 93 1010.7
20260510020012 51 0.0 0.0 0.00 0.17 0.17 92 1010.7
20260510014508 52 0.0 0.0 0.00 0.17 0.17 92 1010.8
20260510013004 52 0.0 0.0 0.00 0.17 0.17 92 1010.9
20260510011602 52 0.0 0.0 0.00 0.17 0.17 92 1010.7
20260510010059 53 0.0 0.0 0.00 0.17 0.17 92 1010.5
20260510004551 53 0.0 0.0 0.00 0.17 0.17 92 1010.3
20260510003046 54 0.0 0.0 0.00 0.17 0.17 92 1010.2
20260510001544 54 0.0 0.0 0.00 0.17 0.17 92 1010.2
20260510000027 54 0.0 0.0 0.00 0.17 0.17 92 1010.2
20260509234516 55 0.0 0.0 0.00 0.17 0.17 92 1010.2
20260509233054 56 0.0 0.0 0.00 0.17 0.17 92 1010.2
20260509231551 56 0.0 0.0 0.00 0.17 0.17 92 1010.1
20260509230033 56 0.0 0.0 0.00 0.17 0.17 91 1009.9
20260509224524 56 0.0 0.0 0.00 0.17 0.17 91 1010.0
20260509223003 56 0.0 0.0 0.03 0.17 0.17 91 1010.0
20260509221559 56 0.0 0.0 0.17 0.17 0.17 90 1010.2
20260509220039 57 0.0 0.0 0.17 0.17 0.17 90 1010.3
20260509214535 57 0.0 0.0 0.17 0.17 0.17 88 1010.7
20260509213013 58 0.0 0.0 0.14 0.14 0.14 85 1010.8
20260509211512 58 0.0 0.0 0.00 0.00 0.00 81 1011.2
20260509210053 59 0.0 0.0 0.00 0.00 0.00 77 1010.5
20260509204550 60 0.0 0.0 0.00 0.00 0.00 77 1010.3
20260509203020 60 0.0 0.0 0.00 0.00 0.00 76 1010.1